Wind_Speed
17 15 15 15 14 13 13 16 17 17 19 21 21 21 18 18 21 20 15 15 8 3 1 3 3 2 3 2 3 5 3 4 6 5 4 2 3 1 2 3 2 3 3 3 5 6 5 3 5 4 4 4 4 4
16 15 13 11 8 9 10 11 11 15 18 19 18 16 17 17 13 10 10 17 14 11 3 4 3 1 2 4 1 5 4 2 1 2 4 3 3 4 1 4 2 4 3 2 4 4 5 4 6 5 4 4 5 3
14 13 10 6 5 5 6 6 9 13 15 15 15 13 12 13 16 14 9 6 7 4 2 2 1 2 4 6 2 1 2 0 2 4 1 1 5 1 3 2 2 1 3 1 5 4 5 4 4 5 5 6 6 7
12 11 8 5 4 3 2 5 9 12 13 13 16 15 7 9 10 14 14 9 4 3 3 2 1 2 5 6 6 1 2 3 4 2 3 3 3 2 1 1 1 2 1 4 5 5 8 2 4 6 6 7 8 9
12 8 6 3 3 3 2 2 6 9 10 13 16 13 9 8 7 7 16 18 9 2 2 2 4 5 5 2 2 2 1 3 1 3 3 1 1 2 1 2 5 7 4 3 3 7 4 9 5 2 5 7 9 8
8 4 1 2 4 6 5 5 8 10 10 11 13 12 10 5 7 3 1 7 14 4 2 1 2 4 12 5 3 5 5 2 2 3 1 1 2 1 3 3 1 2 7 8 6 4 5 14 11 13 7 10 13 11
3 1 4 7 9 8 8 9 10 9 7 7 8 9 10 12 15 9 3 10 8 4 2 2 1 3 11 4 3 4 4 1 2 1 2 1 1 0 1 2 14 9 6 11 7 2 7 2 6 5 10 19 21 21
3 5 8 10 10 9 10 10 8 4 5 4 4 6 9 10 7 6 13 18 5 3 5 3 4 1 13 3 3 7 3 0 4 2 1 2 1 1 2 6 14 9 9 9 11 7 9 16 14 15 16 16 9 11
7 8 10 12 11 9 8 5 3 2 2 1 1 5 4 5 4 4 7 10 17 10 3 3 4 4 12 3 2 4 1 2 2 2 1 1 1 3 5 14 15 17 10 14 14 11 8 9 11 11 10 9 10 12
7 10 14 11 10 11 9 8 6 4 3 3 3 3 3 6 7 4 3 2 5 8 4 3 1 3 4 4 1 4 2 1 2 1 2 1 2 1 7 7 9 12 14 14 18 18 17 16 15 15 14 13 13 13
9 12 15 13 11 12 11 10 4 3 3 3 3 2 3 7 4 3 4 4 3 4 3 1 2 2 2 2 3 2 2 2 2 3 2 1 1 4 9 12 12 16 16 17 17 18 19 15 14 15 15 19 19 19
7 9 13 15 12 10 11 11 10 6 5 5 7 5 5 7 4 6 4 4 5 2 3 3 4 1 2 1 2 2 1 2 2 2 1 2 0 10 15 16 15 22 21 22 20 20 21 21 21 20 19 20 21 22
9 9 10 13 14 13 10 8 7 6 4 3 4 5 4 5 9 6 8 5 4 4 4 5 4 1 2 1 2 2 5 2 1 2 0 2 10 14 15 14 16 23 24 23 23 23 23 22 23 21 21 23 23 22
7 8 10 10 14 16 15 10 5 4 4 3 4 8 4 5 4 2 2 3 3 2 7 6 2 1 2 3 1 3 3 2 5 5 3 7 15 17 16 18 16 17 23 21 22 23 22 22 23 24 23 24 24 20
8 11 10 10 9 12 14 14 13 10 6 4 5 5 3 2 2 2 2 2 1 3 3 3 2 1 2 3 0 3 8 4 2 3 5 12 17 17 17 17 15 17 21 20 23 21 21 23 23 23 22 26 24 24
3 5 9 9 9 10 7 7 12 7 6 4 8 4 2 3 4 3 3 3 3 2 1 1 2 4 4 1 6 4 4 3 5 8 12 14 17 17 17 22 23 25 24 24 25 22 23 22 21 26 22 21 25 23
1 1 4 5 6 10 11 4 5 8 4 5 3 2 2 3 1 1 2 3 14 3 3 2 6 2 3 4 5 2 2 8 13 13 12 15 17 18 24 24 27 27 25 26 25 26 25 25 22 18 18 25 26 25
1 3 5 5 4 3 5 8 6 5 6 3 3 3 2 2 2 2 3 10 5 3 3 1 0 5 3 3 4 6 11 10 10 11 14 23 28 27 26 27 28 27 26 26 27 26 26 22 19 13 18 26 26 15
6 6 6 4 4 3 4 7 7 4 1 1 0 1 1 0 2 5 8 9 4 2 1 3 4 2 2 3 9 11 10 10 12 14 20 28 27 28 30 28 28 26 27 25 24 24 24 25 20 23 19 25 21 17
7 7 7 9 4 4 5 5 5 4 3 1 1 2 1 1 5 6 7 10 4 2 4 4 2 5 8 9 11 9 14 19 10 12 14 20 26 27 26 27 26 29 26 25 24 27 24 23 23 20 23 28 19 18
3 5 7 6 6 12 8 3 4 2 2 3 1 1 1 2 2 3 3 12 3 2 2 2 5 10 20 21 20 21 21 21 14 12 12 14 31 29 27 28 28 27 23 22 22 24 26 22 28 24 25 21 21 20
3 5 4 8 7 6 8 7 4 2 2 1 2 2 2 2 3 2 7 3 1 0 1 3 10 17 19 20 23 23 24 26 25 24 25 27 21 23 25 26 27 24 24 24 25 26 25 26 30 29 20 24 24 21
4 5 6 8 6 6 3 3 4 5 3 2 1 3 3 2 2 7 2 1 2 5 12 16 20 22 21 22 23 22 23 25 22 24 26 25 25 25 26 27 26 25 25 27 29 28 24 34 28 26 26 25 20 22
6 7 5 4 4 1 1 4 2 3 3 4 3 3 4 2 4 3 2 2 3 16 16 22 24 23 22 19 16 21 23 23 23 25 25 25 24 28 28 26 26 26 28 31 27 28 29 25 29 26 26 20 19 22
6 9 5 6 4 5 5 4 5 4 2 2 3 3 3 3 2 2 0 2 6 4 15 21 20 17 9 15 23 25 26 25 24 24 27 26 27 28 28 28 27 28 31 22 30 28 26 27 27 26 22 21 25 19
7 4 4 1 3 4 1 2 2 0 1 3 1 2 2 2 4 3 1 2 3 8 17 19 16 17 18 20 20 24 30 30 28 25 30 32 30 26 25 24 24 30 29 32 29 27 27 28 27 21 18 21 24 21
4 3 2 2 2 2 3 2 1 3 2 1 2 3 3 4 3 3 1 3 6 15 23 22 20 20 20 25 27 28 30 30 27 28 33 34 29 25 25 28 29 29 36 32 29 26 28 29 21 23 19 23 23 22
3 1 3 1 3 1 4 2 2 1 2 1 1 2 4 4 3 2 2 9 16 19 27 24 22 23 25 25 26 29 30 30 28 28 29 22 19 24 30 30 22 38 30 29 30 29 30 24 26 22 23 24 24 25
3 1 2 3 2 3 1 2 2 1 0 1 3 2 3 3 3 2 3 12 15 20 25 27 29 31 28 25 24 25 27 27 27 21 21 15 31 38 39 31 36 31 30 30 30 28 29 29 28 26 25 23 24 21
1 1 3 1 3 0 2 1 1 0 0 1 3 4 4 5 5 6 6 13 16 21 24 21 25 26 26 26 27 29 26 22 27 25 19 19 32 39 36 33 36 33 31 30 28 28 28 27 25 25 24 24 24 21
1 1 2 2 2 1 0 2 1 1 1 1 2 2 3 7 6 2 5 11 15 25 29 27 32 29 27 28 27 27 27 29 32 31 29 30 32 33 31 39 33 30 30 30 28 27 28 27 26 26 24 25 25 22
1 2 3 2 2 1 1 1 0 0 1 1 2 2 4 3 3 2 6 13 16 25 23 26 27 28 25 26 24 23 22 30 31 31 31 32 32 32 33 34 30 29 30 29 29 24 28 27 27 27 23 25 24 24
2 2 2 2 2 2 2 2 3 2 2 1 2 2 2 2 4 4 8 8 15 21 23 25 24 21 25 25 23 26 29 29 27 25 25 27 29 30 31 30 29 29 28 29 26 25 28 28 29 29 24 24 23 23
Wind_Direction
114 112 106 97 87 74 66 62 58 56 53 47 43 41 38 43 56 74 59 59 94 94 165 152 173 355 327 317 352 297 345 7 356 44 45 6 51 289 68 217 304 4 359 8 347 46 356 343 328 74 237 289 249 283
116 112 112 106 98 73 66 60 58 53 45 40 33 29 33 33 39 67 70 70 81 81 140 180 164 90 238 256 202 318 153 57 343 342 14 38 27 5 209 7 340 23 155 223 129 217 235 243 202 234 189 229 282 284
118 118 115 116 91 71 60 59 49 36 29 19 13 3 15 30 40 60 92 71 66 107 97 116 346 27 12 346 239 44 58 251 13 201 254 169 77 8 22 354 298 179 165 234 17 283 256 238 242 207 219 230 263 276
127 125 125 106 82 60 73 61 48 36 27 9 6 6 346 21 37 58 66 44 59 308 107 290 41 36 5 351 10 98 317 267 253 216 54 48 87 10 2 223 340 238 187 307 269 314 323 295 224 240 272 282 283 280
123 125 115 89 34 18 103 347 354 7 3 360 2 7 12 22 26 51 60 43 40 52 117 140 147 40 5 360 320 47 241 266 339 35 39 53 85 31 252 45 45 354 339 345 280 295 222 273 271 257 275 264 271 273
125 124 122 322 304 314 314 292 305 314 339 353 5 25 34 353 359 27 78 11 18 39 107 120 142 22 19 33 17 25 16 360 79 86 121 74 237 91 57 25 326 307 343 276 279 271 232 275 294 283 263 270 269 258
120 2 321 310 306 315 321 317 302 293 287 326 14 36 38 49 58 64 91 322 353 31 30 75 111 39 358 332 58 354 24 57 79 116 49 56 118 330 71 350 346 323 333 315 315 309 302 244 280 294 249 265 276 276
358 339 324 318 322 322 321 317 307 273 238 313 346 18 36 45 57 31 20 24 44 56 33 49 323 352 8 359 350 5 348 214 15 149 2 26 296 205 40 357 339 329 343 334 323 296 256 276 294 287 284 277 267 268
46 35 6 2 5 354 350 358 44 113 156 271 354 39 44 39 34 351 1 33 47 58 89 61 354 316 356 28 1 341 350 20 236 45 60 304 174 44 357 349 346 343 331 326 321 315 307 301 288 288 285 281 259 272
43 23 17 19 32 39 47 52 69 86 104 78 43 4 27 352 343 360 7 5 28 29 33 85 259 310 356 345 7 343 4 42 25 295 290 283 92 225 11 337 335 336 336 333 331 333 327 322 324 321 315 309 302 300
66 40 33 43 45 39 41 37 52 82 67 43 38 68 354 357 9 21 31 41 338 45 27 106 112 307 37 17 323 79 312 310 26 303 63 298 88 359 347 345 341 332 331 329 322 322 323 321 321 321 321 320 315 311
61 50 42 42 42 43 44 44 50 60 81 85 105 68 29 26 21 54 358 354 43 10 352 4 329 75 325 338 276 336 327 353 338 298 10 25 323 351 348 342 339 337 335 329 333 327 324 323 322 320 317 317 317 317
51 54 48 41 40 43 45 54 75 89 74 57 58 45 43 352 30 43 355 329 336 357 6 345 322 82 296 216 298 359 19 288 315 335 249 194 349 345 339 336 332 331 331 326 330 328 326 324 325 324 321 320 318 316
52 58 54 49 50 54 53 55 58 60 46 68 62 28 67 2 27 9 282 275 294 338 329 323 292 358 311 347 305 16 266 52 13 0 299 339 336 333 333 332 331 328 329 327 327 323 322 325 323 323 323 322 318 317
73 69 65 56 51 49 49 49 60 63 50 64 59 58 64 232 250 237 215 293 324 304 320 329 283 132 295 353 235 6 2 343 8 296 307 325 325 324 326 329 327 324 323 324 325 320 322 324 324 317 322 332 329 328
101 56 46 46 38 21 16 44 48 55 60 65 37 61 344 36 332 360 350 303 0 300 231 215 286 23 9 10 16 4 10 283 307 324 315 317 319 321 323 323 320 320 320 322 319 317 320 319 321 324 318 334 330 324
314 59 12 4 9 18 32 57 51 51 70 49 30 11 46 98 168 325 330 305 322 338 12 358 40 301 305 8 349 14 344 309 309 310 311 313 314 316 319 319 321 318 323 322 320 321 316 312 309 328 332 331 327 320
16 354 356 3 11 42 44 39 75 68 59 358 75 330 24 18 322 4 322 341 1 7 2 18 295 36 15 337 299 314 313 308 307 307 309 312 316 317 320 320 320 323 321 323 322 320 318 314 313 317 322 328 316 325
71 45 30 25 47 78 65 34 37 90 97 23 104 18 18 278 27 324 321 341 338 329 37 15 42 2 303 285 304 309 312 314 312 314 311 314 319 319 318 323 324 325 324 323 327 324 322 317 322 318 315 326 320 342
58 49 47 48 66 75 65 26 46 83 90 217 26 19 12 291 310 314 340 359 343 37 30 13 1 317 317 317 314 307 307 310 310 311 313 318 322 322 327 327 326 325 326 327 327 328 322 329 325 321 332 330 332 325
58 44 43 49 58 58 81 2 53 80 132 89 269 6 293 336 12 5 339 343 42 50 356 319 311 315 316 308 310 310 308 314 312 310 310 316 324 327 325 326 328 327 329 330 328 325 328 323 321 335 330 334 327 336
73 55 60 43 73 67 78 38 105 121 76 157 52 14 31 22 341 331 312 33 39 287 266 284 311 316 320 323 321 316 313 318 318 315 318 320 321 326 327 329 329 327 328 326 322 320 321 325 331 330 335 333 333 329
83 50 58 34 71 43 303 11 70 359 74 318 19 44 3 349 265 329 37 244 290 331 318 325 325 325 321 322 323 325 331 329 323 323 323 324 324 325 325 325 325 324 323 322 322 321 328 330 327 338 334 329 326 326
65 52 46 50 46 68 16 20 43 57 40 31 37 15 339 291 319 49 30 313 286 341 347 341 339 334 335 338 333 331 333 334 328 325 328 326 328 327 327 324 325 324 322 319 325 336 333 331 338 335 332 334 333 338
67 354 43 10 353 54 37 15 357 45 43 329 49 348 320 3 50 31 143 320 338 331 331 336 337 335 324 322 327 330 335 341 335 327 328 332 326 324 326 328 329 329 329 344 340 335 335 339 335 334 342 347 342 359
70 323 66 320 336 88 319 67 41 247 63 22 304 259 18 49 45 304 260 266 325 332 328 332 329 329 330 332 325 329 330 335 332 327 327 332 330 324 322 325 329 333 348 348 338 336 341 334 331 347 350 351 349 350
75 350 3 52 106 105 61 45 60 89 68 49 295 358 47 34 306 264 240 33 341 339 345 344 335 328 319 320 325 327 330 332 329 321 323 324 329 332 329 323 323 337 345 343 341 346 337 330 353 346 354 350 345 340
122 95 107 281 56 23 124 77 87 145 233 243 63 42 136 177 248 245 46 357 355 352 354 349 345 342 335 335 334 332 333 334 331 334 334 342 346 346 341 336 342 343 346 347 348 348 340 355 356 359 356 347 342 342
60 359 80 42 22 41 98 145 193 217 359 113 140 227 247 246 280 269 314 348 351 357 356 347 343 346 348 346 345 345 345 346 347 345 344 340 341 344 345 347 347 348 346 345 350 354 353 1 357 1 354 347 349 354
323 340 90 70 98 218 241 74 190 34 309 274 286 301 280 268 290 311 330 351 357 0 356 348 345 352 344 340 337 342 352 357 355 351 335 332 329 331 337 345 350 346 344 343 345 346 354 357 356 357 359 2 358 7
123 89 71 59 142 248 105 316 303 257 274 272 241 198 260 309 310 313 347 358 3 1 357 352 352 358 353 349 345 340 341 346 348 354 347 336 335 337 342 345 348 345 345 345 345 346 353 355 358 356 1 3 360 4
47 88 120 100 280 283 360 46 283 119 295 16 282 230 309 349 303 294 339 351 356 359 358 352 350 346 357 358 357 356 341 345 353 351 348 347 346 348 345 350 351 351 350 350 348 353 355 355 354 353 357 359 359 1
67 60 46 85 29 359 316 60 13 343 352 330 276 219 231 184 248 309 328 340 356 355 353 351 355 359 4 3 1 357 359 359 357 352 355 355 356 354 353 357 357 357 357 355 354 358 357 355 352 350 357 358 358 359
Height
842 846 846 846 846 847 848 845 844 842 839 835 833 830 828 825 823 818 820 817 819 838 851 851 852 856 851 850 846 829 823 824 824 829 830 844 853 857 857 877 877 869 877 862 844 860 861 844 830 834 846 840 837 835
844 846 850 849 851 850 851 848 849 846 842 840 839 836 832 831 827 823 824 825 824 830 848 850 851 852 853 851 850 840 844 847 848 843 842 839 850 855 871 864 862 865 885 884 875 865 856 851 851 848 846 845 838 834
847 848 852 854 853 853 853 851 850 849 844 844 844 839 837 835 831 827 828 828 829 836 849 850 851 852 851 849 848 850 845 849 850 849 849 848 865 863 862 861 858 871 879 874 863 853 849 844 839 838 837 837 832 830
850 850 854 855 856 855 854 852 851 850 848 848 844 842 838 836 834 832 829 831 831 832 840 855 851 852 850 848 847 847 848 847 846 843 848 855 862 857 866 870 858 860 865 862 861 849 838 839 835 833 831 829 827 824
851 854 855 857 856 857 855 851 851 850 851 848 845 842 839 837 837 835 833 834 834 838 842 851 852 852 850 849 848 847 847 847 845 850 858 871 862 864 864 870 853 854 850 851 851 841 843 837 832 829 830 827 824 823
856 856 858 856 857 857 854 853 852 852 852 849 846 843 841 840 837 835 836 837 837 837 841 848 853 853 850 849 849 848 847 846 848 856 866 870 874 872 861 851 859 855 851 850 845 839 840 833 830 826 826 821 819 818
858 858 857 856 857 854 854 852 852 851 851 850 847 846 845 842 839 840 847 845 840 839 841 850 852 854 852 850 850 850 848 850 851 858 865 865 867 867 859 863 853 849 849 844 839 840 837 831 827 823 821 817 815 812
859 857 857 857 854 852 850 849 848 849 849 848 848 848 846 845 844 845 846 844 841 842 843 862 861 854 859 858 861 855 856 851 857 863 864 868 866 864 865 859 856 848 846 842 839 835 832 824 822 818 814 811 809 806
859 860 858 855 851 851 849 848 848 848 848 849 850 849 848 848 848 851 849 848 846 849 863 876 887 877 868 866 864 862 859 856 860 864 868 867 853 862 860 859 854 849 845 840 835 830 825 823 818 813 808 804 802 797
863 862 858 855 853 851 851 849 848 849 850 850 850 850 852 854 851 852 851 851 852 862 871 890 890 888 886 877 870 872 864 867 865 872 869 864 861 862 862 860 855 850 845 840 833 824 820 816 813 808 804 800 796 791
865 863 859 857 856 854 852 851 851 851 851 852 853 855 855 854 853 853 863 868 870 882 887 893 896 894 891 896 889 885 885 872 867 871 870 863 861 861 858 855 852 848 844 840 836 830 825 819 812 806 800 797 792 788
867 865 862 860 857 856 855 854 853 852 853 854 855 856 857 859 865 874 885 878 886 900 896 897 893 894 893 892 889 885 887 877 871 874 871 858 862 857 855 852 848 845 840 836 831 827 821 816 811 806 800 794 789 785
867 866 865 862 860 858 857 856 856 856 857 856 857 864 872 882 897 906 913 908 902 904 900 899 899 896 893 891 895 893 888 881 874 868 861 863 857 857 855 851 846 843 838 832 827 823 818 813 807 802 797 792 786 781
869 867 866 865 863 861 860 859 858 858 857 863 876 893 900 913 915 916 918 917 909 907 904 902 902 901 896 899 896 894 881 884 886 887 870 861 859 856 853 850 845 839 835 830 824 819 814 809 803 798 794 788 782 777
870 868 868 867 866 865 863 862 861 860 863 877 885 911 918 915 915 914 914 913 909 908 905 905 902 902 897 900 889 889 886 895 874 878 875 865 861 856 852 847 843 838 832 826 822 816 811 806 800 794 790 785 780 775
871 870 870 870 869 867 866 865 864 866 875 888 903 914 917 917 918 916 915 913 907 906 904 905 905 905 908 909 896 900 905 898 891 879 873 866 860 855 850 846 841 835 830 824 818 813 808 803 797 792 786 782 778 773
871 871 871 871 870 869 868 867 870 881 893 906 922 919 920 922 924 922 920 916 910 906 911 907 916 916 912 908 906 899 901 896 887 878 872 867 861 853 847 843 837 831 825 821 815 810 804 798 793 789 784 780 775 770
872 872 871 871 870 870 871 873 880 895 919 924 924 927 925 924 925 923 921 917 914 913 912 921 918 923 930 932 915 902 896 891 886 879 871 864 858 852 847 841 834 828 823 817 812 806 800 794 789 784 780 776 770 766
872 872 872 871 871 871 877 887 891 918 930 928 928 927 927 926 926 924 922 919 917 916 917 919 929 935 922 915 906 899 895 891 883 875 869 862 857 851 844 838 832 826 820 814 809 803 797 792 787 782 777 772 766 762
874 874 874 873 872 874 889 901 902 912 930 931 929 930 930 929 927 925 923 920 919 919 927 926 923 921 917 911 906 900 895 890 883 873 864 859 854 848 842 836 829 823 817 811 807 801 793 789 784 778 775 769 763 760
875 876 875 874 876 882 901 912 919 925 928 932 933 933 932 929 930 930 929 925 926 928 928 926 923 919 915 909 904 898 892 887 883 878 869 855 849 846 840 834 828 821 816 810 804 798 793 786 781 775 771 767 763 759
877 877 877 879 885 896 909 919 923 925 928 933 934 933 939 939 940 938 933 932 931 929 928 926 921 916 910 905 899 894 889 884 879 873 868 861 851 844 838 833 826 820 815 809 803 796 789 784 779 773 768 764 761 757
878 879 882 886 895 907 928 922 927 930 935 938 937 941 945 944 940 936 938 936 931 929 926 923 919 914 908 903 897 892 888 882 876 871 864 858 853 846 839 833 827 820 812 806 801 794 788 783 777 771 768 764 758 754
881 887 900 909 912 926 926 931 929 933 937 942 946 946 948 949 941 940 941 937 931 928 925 921 916 908 904 901 896 890 885 881 876 870 865 857 850 843 838 832 826 820 813 804 797 793 787 781 776 771 767 761 757 753
892 919 919 926 927 930 938 941 943 940 949 951 949 950 951 949 948 946 939 935 931 928 925 921 917 913 908 901 895 889 885 881 875 868 863 858 852 843 835 829 823 817 809 801 797 791 785 781 775 770 766 761 757 752
926 938 934 938 940 936 945 944 952 954 955 952 953 951 951 950 950 946 941 938 932 929 926 921 917 911 906 903 896 889 883 879 875 868 861 856 850 844 836 827 818 811 808 804 797 790 785 779 774 770 765 762 757 754
929 939 943 942 943 945 949 952 953 954 956 953 955 953 952 955 955 942 934 933 931 929 926 921 917 913 909 901 896 890 885 879 875 870 861 854 849 844 839 830 819 814 807 802 796 791 785 778 774 768 766 762 758 754
939 941 938 946 947 948 952 953 953 953 954 954 954 954 952 948 942 934 933 933 931 927 923 919 915 911 907 901 895 889 882 877 871 866 859 852 847 842 836 829 823 817 810 803 797 791 785 779 775 770 766 762 758 753
942 943 944 950 951 950 952 952 952 953 952 953 953 949 946 936 932 931 932 931 929 926 922 916 910 906 901 898 894 888 882 876 868 860 854 847 838 832 830 826 821 813 808 802 798 793 786 781 777 772 768 763 759 754
946 945 947 953 948 947 952 952 953 952 952 952 952 948 943 935 931 930 930 929 926 924 921 917 913 907 902 895 889 884 881 878 874 870 863 854 847 838 831 825 819 814 808 802 797 792 788 782 777 773 768 764 759 755
944 945 946 948 951 953 952 952 951 951 951 951 950 951 946 937 930 929 929 927 926 923 919 914 909 906 902 897 892 885 879 876 873 868 864 857 849 841 834 828 821 815 809 803 798 793 788 783 778 773 769 765 761 757
944 948 948 947 952 952 952 952 953 953 952 952 950 948 944 942 940 929 928 926 924 922 920 916 911 906 903 899 895 891 888 880 872 867 861 856 849 843 835 828 822 817 811 805 799 794 790 785 780 775 770 767 763 759
950 950 952 952 954 953 953 954 954 953 953 952 949 947 945 945 940 929 927 925 924 922 919 915 911 907 903 898 894 890 884 879 873 868 863 858 852 845 836 829 824 818 812 806 801 797 791 786 781 776 772 767 763 760